"Period start","avg(HW err(1)/warn(2) (#))","avg(Visibility (m))","avg(Weather code (#))","avg(Precip intensity (mm/h))","min(HW err(1)/warn(2) (#))","max(HW err(1)/warn(2) (#))","std(HW err(1)/warn(2) (#))","med(HW err(1)/warn(2) (#))","min(Visibility (m))","max(Visibility (m))","std(Visibility (m))","med(Visibility (m))","min(Weather code (#))","max(Weather code (#))","std(Weather code (#))","med(Weather code (#))","min(Precip intensity (mm/h))","max(Precip intensity (mm/h))","std(Precip intensity (mm/h))","med(Precip intensity (mm/h))"
2014-12-02 00:00:00,2,44958,0,0.00,2,2,0,2,40994,48472,2126,45138,0,0,0,0,0.00,0.00,0.00,0.00
2014-12-02 00:10:00,2,42915,0,0.00,2,2,0,2,35898,48606,3621,43200,0,0,0,0,0.00,0.00,0.00,0.00
2014-12-02 00:20:00,2,44982,0,0.00,2,2,0,2,39147,49471,2964,45666,0,0,0,0,0.00,0.00,0.00,0.00
2014-12-02 00:30:00,2,43582,0,0.00,2,2,0,2,39201,50000,3448,43881,0,0,0,0,0.00,0.00,0.00,0.00
2014-12-02 00:40:00,2,46561,0,0.00,2,2,0,2,43518,50000,2277,46747,0,0,0,0,0.00,0.00,0.00,0.00
2014-12-02 00:50:00,2,40981,0,0.00,2,2,0,2,35876,49374,3836,40578,0,0,0,0,0.00,0.00,0.00,0.00
2014-12-02 01:00:00,2,41841,0,0.00,2,2,0,2,35247,45629,2850,41744,0,0,0,0,0.00,0.00,0.00,0.00
2014-12-02 01:10:00,2,45016,0,0.00,2,2,0,2,38739,48752,3422,45810,0,0,0,0,0.00,0.00,0.00,0.00
2014-12-02 01:20:00,2,45089,0,0.00,2,2,0,2,41135,48043,2619,45392,0,0,0,0,0.00,0.00,0.00,0.00
2014-12-02 01:30:00,2,33601,0,0.00,2,2,0,2,30645,36996,1846,33280,0,0,0,0,0.00,0.00,0.00,0.00
2014-12-02 01:40:00,2,31596,0,0.00,2,2,0,2,28214,35843,2528,30731,0,0,0,0,0.00,0.00,0.00,0.00
2014-12-02 01:50:00,2,27137,0,0.00,2,2,0,2,24674,30128,1446,26946,0,0,0,0,0.00,0.00,0.00,0.00
2014-12-02 02:00:00,2,27920,0,0.00,2,2,0,2,24044,33052,2588,28533,0,0,0,0,0.00,0.00,0.00,0.00
2014-12-02 02:10:00,2,29978,0,0.00,2,2,0,2,25060,34121,2618,29930,0,0,0,0,0.00,0.00,0.00,0.00
2014-12-02 02:20:00,2,33707,0,0.00,2,2,0,2,30040,42258,3712,32186,0,0,0,0,0.00,0.00,0.00,0.00
2014-12-02 02:30:00,2,40260,0,0.00,2,2,0,2,34269,45306,3158,40426,0,0,0,0,0.00,0.00,0.00,0.00
2014-12-02 02:40:00,2,39851,0,0.00,2,2,0,2,30546,48096,5491,41636,0,0,0,0,0.00,0.00,0.00,0.00
2014-12-02 02:50:00,2,34017,0,0.00,2,2,0,2,30531,38175,2602,33626,0,0,0,0,0.00,0.00,0.00,0.00
2014-12-02 03:00:00,2,32967,0,0.00,2,2,0,2,26605,38018,3321,33912,0,0,0,0,0.00,0.00,0.00,0.00
2014-12-02 03:10:00,2,29458,0,0.00,2,2,0,2,23184,37351,4578,29072,0,0,0,0,0.00,0.00,0.00,0.00
2014-12-02 03:20:00,2,29026,0,0.00,2,2,0,2,24933,33282,2403,29124,0,0,0,0,0.00,0.00,0.00,0.00
2014-12-02 03:30:00,2,25065,0,0.00,2,2,0,2,22076,28407,2016,24961,0,0,0,0,0.00,0.00,0.00,0.00
2014-12-02 03:40:00,2,25705,0,0.00,2,2,0,2,22899,29083,1965,25415,0,0,0,0,0.00,0.00,0.00,0.00
2014-12-02 03:50:00,2,23115,0,0.00,2,2,0,2,13941,28210,4339,24186,0,0,0,0,0.00,0.00,0.00,0.00
2014-12-02 04:00:00,2,23820,0,0.00,2,2,0,2,21403,28887,2025,23504,0,0,0,0,0.00,0.00,0.00,0.00
2014-12-02 04:10:00,2,23540,0,0.00,2,2,0,2,21943,25754,1201,23402,0,0,0,0,0.00,0.00,0.00,0.00
2014-12-02 04:20:00,2,24562,0,0.00,2,2,0,2,22240,27692,1538,24102,0,0,0,0,0.00,0.00,0.00,0.00
2014-12-02 04:30:00,2,23301,0,0.00,2,2,0,2,19717,27273,2577,22958,0,0,0,0,0.00,0.00,0.00,0.00
2014-12-02 04:40:00,2,24735,0,0.00,2,2,0,2,22909,26780,1225,24574,0,0,0,0,0.00,0.00,0.00,0.00
2014-12-02 04:50:00,2,23899,0,0.00,2,2,0,2,21687,26991,1568,23526,0,0,0,0,0.00,0.00,0.00,0.00
2014-12-02 05:00:00,2,24031,0,0.00,2,2,0,2,21564,31180,2626,23274,0,0,0,0,0.00,0.00,0.00,0.00
2014-12-02 05:10:00,2,23328,0,0.00,2,2,0,2,20277,26724,1924,23290,0,0,0,0,0.00,0.00,0.00,0.00
2014-12-02 05:20:00,2,27087,0,0.00,2,2,0,2,23913,34484,3059,25730,0,0,0,0,0.00,0.00,0.00,0.00
2014-12-02 05:30:00,2,27381,0,0.00,2,2,0,2,25225,29747,1236,27640,0,0,0,0,0.00,0.00,0.00,0.00
2014-12-02 05:40:00,2,29988,0,0.00,2,2,0,2,27339,31550,1381,30412,0,0,0,0,0.00,0.00,0.00,0.00
2014-12-02 05:50:00,2,31646,0,0.00,2,2,0,2,27286,35545,2727,31575,0,0,0,0,0.00,0.00,0.00,0.00
2014-12-02 06:00:00,2,31560,0,0.00,2,2,0,2,27929,35755,2980,30286,0,0,0,0,0.00,0.00,0.00,0.00
2014-12-02 06:10:00,2,30295,0,0.00,2,2,0,2,28183,33346,1777,30186,0,0,0,0,0.00,0.00,0.00,0.00
2014-12-02 06:20:00,2,31386,0,0.00,2,2,0,2,28690,35350,1916,31774,0,0,0,0,0.00,0.00,0.00,0.00
2014-12-02 06:30:00,2,35548,0,0.00,2,2,0,2,28025,41841,4642,36259,0,0,0,0,0.00,0.00,0.00,0.00
2014-12-02 06:40:00,2,30866,0,0.00,2,2,0,2,28283,35933,2870,29824,0,0,0,0,0.00,0.00,0.00,0.00
2014-12-02 06:50:00,2,8299,69,0.04,2,2,0,2,2829,19600,5033,7796,0,78,23,78,0.00,0.10,0.03,0.05
2014-12-02 07:00:00,2,4218,74,0.06,2,2,0,2,2678,5535,961,4510,71,77,3,74,0.00,0.20,0.05,0.05
2014-12-02 07:10:00,2,3748,76,0.04,2,2,0,2,3284,4244,305,3744,71,77,2,77,0.00,0.10,0.03,0.05
2014-12-02 07:20:00,2,3297,77,0.08,2,2,0,2,2945,4239,357,3182,77,77,0,77,0.05,0.10,0.02,0.10
2014-12-02 07:30:00,2,3701,77,0.07,2,2,0,2,3097,4093,320,3821,77,77,0,77,0.05,0.10,0.02,0.05
2014-12-02 07:40:00,2,3683,77,0.06,2,2,0,2,3275,4285,286,3696,77,77,0,77,0.05,0.10,0.02,0.05
2014-12-02 07:50:00,2,2282,76,0.16,2,2,0,2,1914,2589,201,2236,71,77,2,77,0.10,0.20,0.04,0.15
2014-12-02 08:00:00,2,2526,75,0.19,2,2,0,2,2313,2898,178,2463,71,77,3,77,0.10,0.25,0.05,0.20
2014-12-02 08:10:00,2,2932,75,0.12,2,2,0,2,2731,3172,141,2890,71,77,3,77,0.10,0.20,0.03,0.10
2014-12-02 08:20:00,2,3044,75,0.10,2,2,0,2,2416,3400,293,3108,71,77,3,77,0.05,0.25,0.06,0.10
2014-12-02 08:30:00,2,2999,74,0.08,2,2,0,2,2674,3312,200,2958,71,77,3,74,0.05,0.10,0.02,0.10
2014-12-02 08:40:00,2,2847,72,0.13,2,2,0,2,1867,3530,465,2923,71,77,2,71,0.10,0.20,0.04,0.10
2014-12-02 08:50:00,2,2371,73,0.14,2,2,0,2,2009,2670,190,2375,71,77,3,71,0.10,0.20,0.03,0.15
2014-12-02 09:00:00,2,2682,71,0.19,2,2,0,2,2257,3176,302,2694,71,71,0,71,0.05,0.65,0.17,0.12
2014-12-02 09:10:00,2,3453,71,0.10,2,2,0,2,3034,3886,262,3500,71,71,0,71,0.05,0.20,0.04,0.10
2014-12-02 09:20:00,2,4180,72,0.12,2,2,0,2,3619,5384,539,4024,71,77,2,71,0.05,0.35,0.08,0.10
2014-12-02 09:30:00,2,8372,71,0.14,2,2,0,2,5979,10471,1277,8202,71,71,0,71,0.00,0.30,0.10,0.12
2014-12-02 09:40:00,2,6260,71,0.47,2,2,0,2,2527,12197,3469,4547,71,71,0,71,0.05,1.05,0.31,0.50
2014-12-02 09:50:00,2,3906,71,0.86,2,2,0,2,1794,6534,1396,3800,71,71,0,71,0.25,2.50,0.69,0.53
2014-12-02 10:00:00,2,16475,71,0.07,2,2,0,2,5642,25559,6163,14624,71,71,0,71,0.00,0.30,0.09,0.03
2014-12-02 10:10:00,2,23867,75,0.02,2,2,0,2,17590,36301,5296,23762,71,78,3,77,0.00,0.10,0.03,0.00
2014-12-02 10:20:00,2,36278,38,0.01,2,2,0,2,25819,47606,7824,36010,0,77,38,38,0.00,0.05,0.02,0.00
2014-12-02 10:30:00,2,47656,0,0.00,2,2,0,2,41046,50000,2733,48342,0,0,0,0,0.00,0.00,0.00,0.00
2014-12-02 10:40:00,2,46579,0,0.00,2,2,0,2,43391,50000,2531,45492,0,0,0,0,0.00,0.00,0.00,0.00
2014-12-02 10:50:00,2,49881,0,0.00,2,2,0,2,49319,50000,240,50000,0,0,0,0,0.00,0.00,0.00,0.00
2014-12-02 11:00:00,2,49854,0,0.00,2,2,0,2,48920,50000,331,50000,0,0,0,0,0.00,0.00,0.00,0.00
2014-12-02 11:10:00,2,50000,0,0.00,2,2,0,2,50000,50000,0,50000,0,0,0,0,0.00,0.00,0.00,0.00
2014-12-02 11:20:00,2,49890,0,0.00,2,2,0,2,49623,50000,168,50000,0,0,0,0,0.00,0.00,0.00,0.00
2014-12-02 11:30:00,2,49944,0,0.00,2,2,0,2,49498,50000,150,50000,0,0,0,0,0.00,0.00,0.00,0.00
2014-12-02 11:40:00,2,49649,0,0.00,2,2,0,2,47624,50000,755,50000,0,0,0,0,0.00,0.00,0.00,0.00
2014-12-02 11:50:00,2,49976,0,0.00,2,2,0,2,49764,50000,71,50000,0,0,0,0,0.00,0.00,0.00,0.00
2014-12-02 12:00:00,2,49244,0,0.00,2,2,0,2,46194,50000,1350,50000,0,0,0,0,0.00,0.00,0.00,0.00
2014-12-02 12:10:00,2,50000,0,0.00,2,2,0,2,50000,50000,0,50000,0,0,0,0,0.00,0.00,0.00,0.00
2014-12-02 12:20:00,2,50000,0,0.00,2,2,0,2,50000,50000,0,50000,0,0,0,0,0.00,0.00,0.00,0.00
2014-12-02 12:30:00,2,40985,0,0.00,2,2,0,2,22135,50000,10279,46318,0,0,0,0,0.00,0.00,0.00,0.00
2014-12-02 12:40:00,2,33633,0,0.00,2,2,0,2,23436,42495,6614,32602,0,0,0,0,0.00,0.00,0.00,0.00
2014-12-02 12:50:00,2,22967,0,0.00,2,2,0,2,17080,32571,4155,23484,0,0,0,0,0.00,0.00,0.00,0.00
2014-12-02 13:00:00,2,22432,0,0.00,2,2,0,2,16798,27639,3611,23154,0,0,0,0,0.00,0.00,0.00,0.00
2014-12-02 13:10:00,2,14655,22,0.01,2,2,0,2,10470,17209,2147,15619,0,77,33,0,0.00,0.05,0.02,0.00
2014-12-02 13:20:00,2,9559,78,0.02,2,2,0,2,7951,10810,822,9404,77,78,0,78,0.00,0.05,0.02,0.00
2014-12-02 13:30:00,2,9283,78,0.02,2,2,0,2,7779,11072,1017,9424,78,78,0,78,0.00,0.05,0.02,0.00
2014-12-02 13:40:00,2,12716,78,0.00,2,2,0,2,10512,20777,2803,12104,78,78,0,78,0.00,0.00,0.00,0.00
2014-12-02 13:50:00,2,15683,78,0.00,2,2,0,2,13130,18455,1438,15700,78,78,0,78,0.00,0.00,0.00,0.00
2014-12-02 14:00:00,2,15381,78,0.00,2,2,0,2,12632,17219,1426,15150,78,78,0,78,0.00,0.00,0.00,0.00
2014-12-02 14:10:00,2,11767,78,0.01,2,2,0,2,10593,13324,885,11585,78,78,0,78,0.00,0.05,0.02,0.00
2014-12-02 14:20:00,2,11598,78,0.01,2,2,0,2,9886,13411,1095,11596,77,78,0,78,0.00,0.05,0.02,0.00
2014-12-02 14:30:00,2,17580,78,0.00,2,2,0,2,10661,26944,5513,16619,77,78,0,78,0.00,0.00,0.00,0.00
2014-12-02 14:40:00,2,25664,77,0.00,2,2,0,2,23512,29484,1515,25578,77,77,0,77,0.00,0.00,0.00,0.00
2014-12-02 14:50:00,2,22305,77,0.00,2,2,0,2,16310,28122,3482,22710,77,78,0,77,0.00,0.00,0.00,0.00
2014-12-02 15:00:00,2,10628,78,0.01,2,2,0,2,7856,14290,2309,9979,77,78,0,78,0.00,0.05,0.02,0.00
2014-12-02 15:10:00,2,8432,77,0.04,2,2,0,2,7067,9311,678,8490,77,77,0,77,0.00,0.05,0.02,0.05
2014-12-02 15:20:00,2,7715,77,0.05,2,2,0,2,7033,8314,348,7725,77,78,0,77,0.05,0.05,0.00,0.05
2014-12-02 15:30:00,2,6982,78,0.06,2,2,0,2,6339,7277,306,7104,77,78,0,78,0.05,0.15,0.03,0.05
2014-12-02 15:40:00,2,7420,74,0.06,2,2,0,2,6531,8513,581,7371,71,78,3,74,0.05,0.10,0.02,0.05
2014-12-02 15:50:00,2,8101,77,0.04,2,2,0,2,7032,9046,699,8368,77,77,0,77,0.00,0.05,0.02,0.05
2014-12-02 16:00:00,2,8423,78,0.04,2,2,0,2,7568,9176,604,8466,77,78,0,78,0.00,0.05,0.02,0.05
2014-12-02 16:10:00,2,9114,75,0.07,2,2,0,2,7760,10762,805,9259,71,78,3,78,0.05,0.30,0.07,0.05
2014-12-02 16:20:00,2,9357,75,0.03,2,2,0,2,8699,10052,424,9362,71,78,3,77,0.00,0.15,0.04,0.03
2014-12-02 16:30:00,2,12070,73,0.02,2,2,0,2,9294,17580,2510,11371,71,77,3,71,0.00,0.15,0.05,0.00
2014-12-02 16:40:00,2,19973,76,0.00,2,2,0,2,16729,22591,1824,19656,71,77,2,77,0.00,0.00,0.00,0.00
2014-12-02 16:50:00,2,22159,77,0.00,2,2,0,2,17867,25603,2675,23166,77,77,0,77,0.00,0.00,0.00,0.00
2014-12-02 17:00:00,2,25209,77,0.00,2,2,0,2,21465,30834,3338,24588,77,77,0,77,0.00,0.00,0.00,0.00
2014-12-02 17:10:00,2,19082,77,0.00,2,2,0,2,15414,23592,2594,18462,77,77,0,77,0.00,0.00,0.00,0.00
2014-12-02 17:20:00,2,21169,74,0.01,2,2,0,2,16947,28532,3167,20480,71,78,3,74,0.00,0.10,0.03,0.00
2014-12-02 17:30:00,2,31163,38,0.00,2,2,0,2,22701,40412,5220,30292,0,78,38,36,0.00,0.00,0.00,0.00
2014-12-02 17:40:00,2,30078,0,0.00,2,2,0,2,24702,38538,3808,30146,0,0,0,0,0.00,0.00,0.00,0.00
2014-12-02 17:50:00,2,31848,0,0.00,2,2,0,2,24339,41507,5474,30750,0,0,0,0,0.00,0.00,0.00,0.00
2014-12-02 18:00:00,2,33958,0,0.00,2,2,0,2,30572,39457,3100,33230,0,0,0,0,0.00,0.00,0.00,0.00
2014-12-02 18:10:00,2,45500,0,0.00,2,2,0,2,36229,50000,4584,46560,0,0,0,0,0.00,0.00,0.00,0.00
2014-12-02 18:20:00,2,49027,0,0.00,2,2,0,2,44983,50000,1725,50000,0,0,0,0,0.00,0.00,0.00,0.00
2014-12-02 18:30:00,2,49549,0,0.00,2,2,0,2,47065,50000,895,50000,0,0,0,0,0.00,0.00,0.00,0.00
2014-12-02 18:40:00,2,49162,0,0.00,2,2,0,2,46249,50000,1302,49816,0,0,0,0,0.00,0.00,0.00,0.00
2014-12-02 18:50:00,2,41468,0,0.00,2,2,0,2,12277,50000,13605,50000,0,0,0,0,0.00,0.00,0.00,0.00
2014-12-02 19:00:00,2,49325,0,0.00,2,2,0,2,45845,50000,1395,50000,0,0,0,0,0.00,0.00,0.00,0.00
2014-12-02 19:10:00,2,41167,0,0.00,2,2,0,2,3277,50000,14813,48857,0,0,0,0,0.00,0.00,0.00,0.00
2014-12-02 19:20:00,2,49146,0,0.00,2,2,0,2,43838,50000,1906,50000,0,0,0,0,0.00,0.00,0.00,0.00
2014-12-02 19:30:00,2,49207,0,0.00,2,2,0,2,46269,50000,1357,50000,0,0,0,0,0.00,0.00,0.00,0.00
2014-12-02 19:40:00,2,47205,0,0.00,2,2,0,2,37754,50000,3920,49361,0,0,0,0,0.00,0.00,0.00,0.00
2014-12-02 19:50:00,2,41212,0,0.00,2,2,0,2,31743,47179,4862,43486,0,0,0,0,0.00,0.00,0.00,0.00
2014-12-02 20:00:00,2,49874,0,0.00,2,2,0,2,48745,50000,376,50000,0,0,0,0,0.00,0.00,0.00,0.00
2014-12-02 20:10:00,2,50000,0,0.00,2,2,0,2,50000,50000,0,50000,0,0,0,0,0.00,0.00,0.00,0.00
2014-12-02 20:20:00,2,50000,0,0.00,2,2,0,2,50000,50000,0,50000,0,0,0,0,0.00,0.00,0.00,0.00
2014-12-02 20:30:00,2,49710,0,0.00,2,2,0,2,47396,50000,776,50000,0,0,0,0,0.00,0.00,0.00,0.00
2014-12-02 20:40:00,2,49880,0,0.00,2,2,0,2,48796,50000,361,50000,0,0,0,0,0.00,0.00,0.00,0.00
2014-12-02 20:50:00,2,50000,0,0.00,2,2,0,2,50000,50000,0,50000,0,0,0,0,0.00,0.00,0.00,0.00
2014-12-02 21:00:00,2,50000,0,0.00,2,2,0,2,50000,50000,0,50000,0,0,0,0,0.00,0.00,0.00,0.00
2014-12-02 21:10:00,2,40000,0,0.00,1,2,0,2,0,50000,20000,50000,0,0,0,0,0.00,0.00,0.00,0.00
2014-12-02 21:20:00,1,,,,1,1,0,1,,,,,,,,,,,,
2014-12-02 21:30:00,1,,,,1,1,0,1,,,,,,,,,,,,
2014-12-02 21:40:00,1,,,,1,1,0,1,,,,,,,,,,,,
2014-12-02 21:50:00,1,,,,1,1,0,1,,,,,,,,,,,,
2014-12-02 22:00:00,1,,,,1,1,0,1,,,,,,,,,,,,
2014-12-02 22:10:00,1,,,,1,1,0,1,,,,,,,,,,,,
2014-12-02 22:20:00,1,,,,1,1,0,1,,,,,,,,,,,,
2014-12-02 22:30:00,1,,,,1,1,0,1,,,,,,,,,,,,
2014-12-02 22:40:00,1,,,,1,1,0,1,,,,,,,,,,,,
2014-12-02 22:50:00,1,,,,1,1,0,1,,,,,,,,,,,,
2014-12-02 23:00:00,1,,,,1,1,0,1,,,,,,,,,,,,
2014-12-02 23:10:00,1,,,,1,1,0,1,,,,,,,,,,,,
2014-12-02 23:20:00,1,,,,1,1,0,1,,,,,,,,,,,,
2014-12-02 23:30:00,1,,,,1,1,0,1,,,,,,,,,,,,
2014-12-02 23:40:00,1,,,,1,1,0,1,,,,,,,,,,,,
2014-12-02 23:50:00,1,0,,0.00,1,2,0,1,0,0,0,0,,,,,0.00,0.00,0.00,0.00
